Wetterdaten: Freitag, 11.03.2016
Datum Zeit Temperatur Luftfeuchte Luftdruck Regen Wind Richtung Richtung Sonnenschein ET UV Solar Taupunkt Windchill Windben
11.03.2016 00:00 3,4 C 83 % 1024,3 hPa 0,0 l/m 0,0 km/h (0 Bft) O-NO 61 0 min 0,000 mm 0,0 UV-I 0 W/m 0,8 C 3,4 C 0,0 km/h (0 Bft)
11.03.2016 00:05 3,4 C 83 % 1024,2 hPa 0,0 l/m 0,0 km/h (0 Bft) O-NO 61 0 min 0,000 mm 0,0 UV-I 0 W/m 0,8 C 3,4 C 0,0 km/h (0 Bft)
11.03.2016 00:10 3,3 C 83 % 1024,2 hPa 0,0 l/m 0,0 km/h (0 Bft) O-NO 61 0 min 0,000 mm 0,0 UV-I 0 W/m 0,7 C 3,3 C 0,0 km/h (0 Bft)
11.03.2016 00:15 3,3 C 84 % 1024,2 hPa 0,0 l/m 0,0 km/h (0 Bft) N-NO 13 0 min 0,000 mm 0,0 UV-I 0 W/m 0,9 C 3,3 C 0,0 km/h (0 Bft)
11.03.2016 00:20 3,3 C 84 % 1024,2 hPa 0,0 l/m 0,0 km/h (0 Bft) N-NO 13 0 min 0,000 mm 0,0 UV-I 0 W/m 0,9 C 3,3 C 0,0 km/h (0 Bft)
11.03.2016 00:25 3,2 C 84 % 1024,3 hPa 0,0 l/m 0,0 km/h (0 Bft) N-NO 13 0 min 0,000 mm 0,0 UV-I 0 W/m 0,8 C 3,2 C 0,0 km/h (0 Bft)
11.03.2016 00:30 3,2 C 85 % 1024,2 hPa 0,0 l/m 0,0 km/h (0 Bft) N-NO 13 0 min 0,000 mm 0,0 UV-I 0 W/m 0,9 C 3,2 C 0,0 km/h (0 Bft)
11.03.2016 00:35 3,2 C 85 % 1024,3 hPa 0,0 l/m 0,0 km/h (0 Bft) N-NO 13 0 min 0,000 mm 0,0 UV-I 0 W/m 0,9 C 3,2 C 0,0 km/h (0 Bft)
11.03.2016 00:40 3,1 C 85 % 1024,3 hPa 0,0 l/m 0,0 km/h (0 Bft) N-NO 13 0 min 0,000 mm 0,0 UV-I 0 W/m 0,8 C 3,1 C 0,0 km/h (0 Bft)
11.03.2016 00:45 3,2 C 85 % 1024,3 hPa 0,0 l/m 0,0 km/h (0 Bft) N-NO 15 0 min 0,000 mm 0,0 UV-I 0 W/m 0,9 C 3,2 C 0,0 km/h (0 Bft)
11.03.2016 00:50 3,2 C 85 % 1024,4 hPa 0,0 l/m 0,0 km/h (0 Bft) N-NO 15 0 min 0,000 mm 0,0 UV-I 0 W/m 0,9 C 3,2 C 0,0 km/h (0 Bft)
11.03.2016 00:55 3,2 C 85 % 1024,3 hPa 0,0 l/m 0,0 km/h (0 Bft) N-NO 15 0 min 0,000 mm 0,0 UV-I 0 W/m 0,9 C 3,2 C 0,0 km/h (0 Bft)
11.03.2016 01:00 3,2 C 86 % 1024,4 hPa 0,0 l/m 0,0 km/h (0 Bft) N-NO 15 0 min 0,000 mm 0,0 UV-I 0 W/m 1,1 C 3,2 C 0,0 km/h (0 Bft)
11.03.2016 01:05 3,2 C 86 % 1024,4 hPa 0,0 l/m 0,0 km/h (0 Bft) O 84 0 min 0,000 mm 0,0 UV-I 0 W/m 1,1 C 3,2 C 0,0 km/h (0 Bft)
11.03.2016 01:10 3,3 C 86 % 1024,4 hPa 0,0 l/m 0,0 km/h (0 Bft) NO 51 0 min 0,000 mm 0,0 UV-I 0 W/m 1,2 C 3,3 C 0,0 km/h (0 Bft)
11.03.2016 01:15 3,3 C 85 % 1024,4 hPa 0,0 l/m 0,0 km/h (0 Bft) O 93 0 min 0,000 mm 0,0 UV-I 0 W/m 1,0 C 3,3 C 0,0 km/h (0 Bft)
11.03.2016 01:20 3,3 C 85 % 1024,4 hPa 0,0 l/m 0,0 km/h (0 Bft) O 93 0 min 0,000 mm 0,0 UV-I 0 W/m 1,0 C 3,3 C 0,0 km/h (0 Bft)
11.03.2016 01:25 3,3 C 85 % 1024,4 hPa 0,0 l/m 0,0 km/h (0 Bft) O 93 0 min 0,000 mm 0,0 UV-I 0 W/m 1,0 C 3,3 C 0,0 km/h (0 Bft)
11.03.2016 01:30 3,3 C 85 % 1024,5 hPa 0,0 l/m 0,0 km/h (0 Bft) NO 44 0 min 0,000 mm 0,0 UV-I 0 W/m 1,0 C 3,3 C 0,0 km/h (0 Bft)
11.03.2016 01:35 3,3 C 85 % 1024,5 hPa 0,0 l/m 0,0 km/h (0 Bft) NO 55 0 min 0,000 mm 0,0 UV-I 0 W/m 1,0 C 3,3 C 0,0 km/h (0 Bft)
11.03.2016 01:40 3,4 C 85 % 1024,4 hPa 0,0 l/m 1,5 km/h (1 Bft) O-NO 65 0 min 0,000 mm 0,0 UV-I 0 W/m 1,1 C 3,4 C 11,3 km/h (2 Bft)
11.03.2016 01:45 3,5 C 85 % 1024,4 hPa 0,0 l/m 0,6 km/h (0 Bft) O-NO 64 0 min 0,000 mm 0,0 UV-I 0 W/m 1,2 C 3,5 C 9,7 km/h (2 Bft)
11.03.2016 01:50 3,6 C 85 % 1024,4 hPa 0,0 l/m 1,2 km/h (1 Bft) O-NO 71 0 min 0,000 mm 0,0 UV-I 0 W/m 1,3 C 3,6 C 8,0 km/h (2 Bft)
11.03.2016 01:55 3,6 C 84 % 1024,4 hPa 0,0 l/m 0,0 km/h (0 Bft) O-NO 67 0 min 0,000 mm 0,0 UV-I 0 W/m 1,2 C 3,6 C 0,0 km/h (0 Bft)
11.03.2016 02:00 3,4 C 84 % 1024,5 hPa 0,0 l/m 0,0 km/h (0 Bft) O-NO 67 0 min 0,000 mm 0,0 UV-I 0 W/m 1,0 C 3,4 C 0,0 km/h (0 Bft)
11.03.2016 02:05 3,3 C 84 % 1024,6 hPa 0,0 l/m 0,0 km/h (0 Bft) O-NO 61 0 min 0,000 mm 0,0 UV-I 0 W/m 0,9 C 3,3 C 0,0 km/h (0 Bft)
11.03.2016 02:10 3,2 C 85 % 1024,5 hPa 0,0 l/m 0,0 km/h (0 Bft) O-NO 67 0 min 0,000 mm 0,0 UV-I 0 W/m 0,9 C 3,2 C 1,6 km/h (1 Bft)
11.03.2016 02:15 3,1 C 85 % 1024,5 hPa 0,0 l/m 1,2 km/h (1 Bft) NO 55 0 min 0,000 mm 0,0 UV-I 0 W/m 0,8 C 3,1 C 8,0 km/h (2 Bft)
11.03.2016 02:20 3,0 C 85 % 1024,4 hPa 0,0 l/m 0,1 km/h (0 Bft) NO 56 0 min 0,000 mm 0,0 UV-I 0 W/m 0,7 C 3,0 C 4,8 km/h (1 Bft)
11.03.2016 02:25 2,9 C 86 % 1024,4 hPa 0,0 l/m 0,0 km/h (0 Bft) NO 56 0 min 0,000 mm 0,0 UV-I 0 W/m 0,8 C 2,9 C 0,0 km/h (0 Bft)
11.03.2016 02:30 2,8 C 85 % 1024,4 hPa 0,0 l/m 0,0 km/h (0 Bft) O-NO 57 0 min 0,000 mm 0,0 UV-I 0 W/m 0,5 C 2,8 C 0,0 km/h (0 Bft)
11.03.2016 02:35 2,7 C 86 % 1024,5 hPa 0,0 l/m 0,0 km/h (0 Bft) O-NO 57 0 min 0,000 mm 0,0 UV-I 0 W/m 0,6 C 2,7 C 0,0 km/h (0 Bft)
11.03.2016 02:40 2,5 C 86 % 1024,5 hPa 0,0 l/m 0,0 km/h (0 Bft) O-NO 57 0 min 0,000 mm 0,0 UV-I 0 W/m 0,4 C 2,5 C 0,0 km/h (0 Bft)
11.03.2016 02:45 2,4 C 86 % 1024,4 hPa 0,0 l/m 0,0 km/h (0 Bft) O-NO 57 0 min 0,000 mm 0,0 UV-I 0 W/m 0,3 C 2,4 C 0,0 km/h (0 Bft)
11.03.2016 02:50 2,3 C 86 % 1024,4 hPa 0,0 l/m 0,0 km/h (0 Bft) O-NO 57 0 min 0,000 mm 0,0 UV-I 0 W/m 0,2 C 2,3 C 0,0 km/h (0 Bft)
11.03.2016 02:55 2,1 C 87 % 1024,5 hPa 0,0 l/m 0,0 km/h (0 Bft) O-NO 57 0 min 0,000 mm 0,0 UV-I 0 W/m 0,2 C 2,1 C 0,0 km/h (0 Bft)
11.03.2016 03:00 2,0 C 87 % 1024,6 hPa 0,0 l/m 0,0 km/h (0 Bft) O-NO 57 0 min 0,000 mm 0,0 UV-I 0 W/m 0,1 C 2,0 C 0,0 km/h (0 Bft)
11.03.2016 03:05 1,8 C 87 % 1024,6 hPa 0,0 l/m 0,0 km/h (0 Bft) O-NO 57 0 min 0,000 mm 0,0 UV-I 0 W/m -0,1 C 1,8 C 0,0 km/h (0 Bft)
11.03.2016 03:10 1,7 C 87 % 1024,6 hPa 0,0 l/m 0,0 km/h (0 Bft) O-NO 57 0 min 0,000 mm 0,0 UV-I 0 W/m -0,2 C 1,7 C 0,0 km/h (0 Bft)
11.03.2016 03:15 1,7 C 88 % 1024,7 hPa 0,0 l/m 0,0 km/h (0 Bft) O-NO 57 0 min 0,000 mm 0,0 UV-I 0 W/m -0,1 C 1,7 C 0,0 km/h (0 Bft)
11.03.2016 03:20 1,6 C 88 % 1024,6 hPa 0,0 l/m 0,0 km/h (0 Bft) O-NO 57 0 min 0,000 mm 0,0 UV-I 0 W/m -0,2 C 1,6 C 0,0 km/h (0 Bft)
11.03.2016 03:25 1,6 C 89 % 1024,6 hPa 0,0 l/m 0,0 km/h (0 Bft) O-NO 57 0 min 0,000 mm 0,0 UV-I 0 W/m -0,0 C 1,6 C 0,0 km/h (0 Bft)
11.03.2016 03:30 1,4 C 89 % 1024,6 hPa 0,0 l/m 0,0 km/h (0 Bft) O-NO 57 0 min 0,000 mm 0,0 UV-I 0 W/m -0,2 C 1,4 C 0,0 km/h (0 Bft)
11.03.2016 03:35 1,4 C 89 % 1024,6 hPa 0,0 l/m 0,0 km/h (0 Bft) O-NO 57 0 min 0,000 mm 0,0 UV-I 0 W/m -0,2 C 1,4 C 0,0 km/h (0 Bft)
11.03.2016 03:40 1,3 C 89 % 1024,6 hPa 0,0 l/m 0,0 km/h (0 Bft) O-NO 57 0 min 0,000 mm 0,0 UV-I 0 W/m -0,3 C 1,3 C 0,0 km/h (0 Bft)
11.03.2016 03:45 1,3 C 89 % 1024,7 hPa 0,0 l/m 0,0 km/h (0 Bft) O-NO 57 0 min 0,000 mm 0,0 UV-I 0 W/m -0,3 C 1,3 C 0,0 km/h (0 Bft)
11.03.2016 03:50 1,2 C 89 % 1024,6 hPa 0,0 l/m 0,0 km/h (0 Bft) O-NO 57 0 min 0,000 mm 0,0 UV-I 0 W/m -0,4 C 1,2 C 0,0 km/h (0 Bft)
11.03.2016 03:55 1,2 C 90 % 1024,6 hPa 0,0 l/m 0,0 km/h (0 Bft) O-NO 57 0 min 0,000 mm 0,0 UV-I 0 W/m -0,3 C 1,2 C 0,0 km/h (0 Bft)
11.03.2016 04:00 1,2 C 90 % 1024,7 hPa 0,0 l/m 0,0 km/h (0 Bft) O-NO 57 0 min 0,000 mm 0,0 UV-I 0 W/m -0,3 C 1,2 C 0,0 km/h (0 Bft)
11.03.2016 04:05 1,2 C 90 % 1024,7 hPa 0,0 l/m 0,0 km/h (0 Bft) O-NO 57 0 min 0,000 mm 0,0 UV-I 0 W/m -0,3 C 1,2 C 0,0 km/h (0 Bft)
11.03.2016 04:10 1,2 C 90 % 1024,7 hPa 0,0 l/m 0,0 km/h (0 Bft) O-NO 57 0 min 0,000 mm 0,0 UV-I 0 W/m -0,3 C 1,2 C 0,0 km/h (0 Bft)
11.03.2016 04:15 1,2 C 91 % 1024,7 hPa 0,0 l/m 0,0 km/h (0 Bft) O-NO 57 0 min 0,000 mm 0,0 UV-I 0 W/m -0,1 C 1,2 C 0,0 km/h (0 Bft)
11.03.2016 04:20 1,3 C 90 % 1024,7 hPa 0,0 l/m 0,0 km/h (0 Bft) O-NO 57 0 min 0,000 mm 0,0 UV-I 0 W/m -0,2 C 1,3 C 0,0 km/h (0 Bft)
11.03.2016 04:25 1,3 C 91 % 1024,7 hPa 0,0 l/m 0,0 km/h (0 Bft) O-NO 57 0 min 0,000 mm 0,0 UV-I 0 W/m -0,0 C 1,3 C 0,0 km/h (0 Bft)
11.03.2016 04:30 1,4 C 91 % 1024,7 hPa 0,0 l/m 0,0 km/h (0 Bft) O-NO 57 0 min 0,000 mm 0,0 UV-I 0 W/m 0,1 C 1,4 C 0,0 km/h (0 Bft)
11.03.2016 04:35 1,4 C 90 % 1024,7 hPa 0,0 l/m 0,0 km/h (0 Bft) O-NO 57 0 min 0,000 mm 0,0 UV-I 0 W/m -0,1 C 1,4 C 0,0 km/h (0 Bft)
11.03.2016 04:40 1,4 C 90 % 1024,8 hPa 0,0 l/m 0,0 km/h (0 Bft) O-NO 57 0 min 0,000 mm 0,0 UV-I 0 W/m -0,1 C 1,4 C 0,0 km/h (0 Bft)
11.03.2016 04:45 1,4 C 90 % 1024,8 hPa 0,0 l/m 0,0 km/h (0 Bft) O-NO 57 0 min 0,000 mm 0,0 UV-I 0 W/m -0,1 C 1,4 C 0,0 km/h (0 Bft)
11.03.2016 04:50 1,4 C 90 % 1024,9 hPa 0,0 l/m 0,0 km/h (0 Bft) O-NO 57 0 min 0,000 mm 0,0 UV-I 0 W/m -0,1 C 1,4 C 0,0 km/h (0 Bft)
11.03.2016 04:55 1,4 C 90 % 1024,9 hPa 0,0 l/m 0,0 km/h (0 Bft) O-NO 57 0 min 0,000 mm 0,0 UV-I 0 W/m -0,1 C 1,4 C 0,0 km/h (0 Bft)
11.03.2016 05:00 1,5 C 90 % 1024,9 hPa 0,0 l/m 0,0 km/h (0 Bft) O-NO 57 0 min 0,000 mm 0,0 UV-I 0 W/m 0,0 C 1,5 C 0,0 km/h (0 Bft)
11.03.2016 05:05 1,5 C 90 % 1024,9 hPa 0,0 l/m 0,0 km/h (0 Bft) O-NO 57 0 min 0,000 mm 0,0 UV-I 0 W/m 0,0 C 1,5 C 0,0 km/h (0 Bft)
11.03.2016 05:10 1,5 C 90 % 1024,9 hPa 0,0 l/m 0,0 km/h (0 Bft) O-NO 57 0 min 0,000 mm 0,0 UV-I 0 W/m 0,0 C 1,5 C 0,0 km/h (0 Bft)
11.03.2016 05:15 1,4 C 90 % 1025,0 hPa 0,0 l/m 0,0 km/h (0 Bft) O-NO 57 0 min 0,000 mm 0,0 UV-I 0 W/m -0,1 C 1,4 C 0,0 km/h (0 Bft)
11.03.2016 05:20 1,4 C 90 % 1025,0 hPa 0,0 l/m 0,0 km/h (0 Bft) O-NO 57 0 min 0,000 mm 0,0 UV-I 0 W/m -0,1 C 1,4 C 0,0 km/h (0 Bft)
11.03.2016 05:25 1,6 C 91 % 1025,0 hPa 0,0 l/m 0,0 km/h (0 Bft) O-NO 57 0 min 0,000 mm 0,0 UV-I 0 W/m 0,3 C 1,6 C 0,0 km/h (0 Bft)
11.03.2016 05:30 1,6 C 90 % 1025,0 hPa 0,0 l/m 0,0 km/h (0 Bft) O-NO 57 0 min 0,000 mm 0,0 UV-I 0 W/m 0,1 C 1,6 C 0,0 km/h (0 Bft)
11.03.2016 05:35 1,6 C 90 % 1025,1 hPa 0,0 l/m 0,0 km/h (0 Bft) O-NO 57 0 min 0,000 mm 0,0 UV-I 0 W/m 0,1 C 1,6 C 0,0 km/h (0 Bft)
11.03.2016 05:40 1,6 C 90 % 1025,1 hPa 0,0 l/m 0,0 km/h (0 Bft) O-NO 57 0 min 0,000 mm 0,0 UV-I 0 W/m 0,1 C 1,6 C 0,0 km/h (0 Bft)
11.03.2016 05:45 1,5 C 90 % 1025,1 hPa 0,0 l/m 0,0 km/h (0 Bft) O-NO 57 0 min 0,000 mm 0,0 UV-I 0 W/m 0,0 C 1,5 C 0,0 km/h (0 Bft)
11.03.2016 05:50 1,4 C 90 % 1025,0 hPa 0,0 l/m 0,0 km/h (0 Bft) O-NO 57 0 min 0,000 mm 0,0 UV-I 0 W/m -0,1 C 1,4 C 0,0 km/h (0 Bft)
11.03.2016 05:55 1,4 C 90 % 1025,1 hPa 0,0 l/m 0,0 km/h (0 Bft) O-NO 57 0 min 0,000 mm 0,0 UV-I 0 W/m -0,1 C 1,4 C 0,0 km/h (0 Bft)
11.03.2016 06:00 1,4 C 91 % 1025,1 hPa 0,0 l/m 0,0 km/h (0 Bft) O-NO 57 0 min 0,000 mm 0,0 UV-I 0 W/m 0,1 C 1,4 C 0,0 km/h (0 Bft)
11.03.2016 06:05 1,5 C 91 % 1025,2 hPa 0,0 l/m 0,0 km/h (0 Bft) O-NO 57 0 min 0,000 mm 0,0 UV-I 0 W/m 0,2 C 1,5 C 0,0 km/h (0 Bft)
11.03.2016 06:10 1,6 C 91 % 1025,1 hPa 0,0 l/m 0,0 km/h (0 Bft) O-NO 57 0 min 0,000 mm 0,0 UV-I 0 W/m 0,3 C 1,6 C 0,0 km/h (0 Bft)
11.03.2016 06:15 1,6 C 91 % 1025,1 hPa 0,0 l/m 0,0 km/h (0 Bft) O-NO 57 0 min 0,000 mm 0,0 UV-I 0 W/m 0,3 C 1,6 C 0,0 km/h (0 Bft)
11.03.2016 06:20 1,6 C 90 % 1025,2 hPa 0,0 l/m 0,0 km/h (0 Bft) O-NO 57 0 min 0,000 mm 0,0 UV-I 0 W/m 0,1 C 1,6 C 0,0 km/h (0 Bft)
11.03.2016 06:25 1,6 C 91 % 1025,2 hPa 0,0 l/m 0,0 km/h (0 Bft) O-NO 57 0 min 0,000 mm 0,0 UV-I 0 W/m 0,3 C 1,6 C 0,0 km/h (0 Bft)
11.03.2016 06:30 1,6 C 90 % 1025,2 hPa 0,0 l/m 0,0 km/h (0 Bft) O-NO 57 0 min 0,000 mm 0,0 UV-I 0 W/m 0,1 C 1,6 C 0,0 km/h (0 Bft)
11.03.2016 06:35 1,6 C 90 % 1025,3 hPa 0,0 l/m 0,0 km/h (0 Bft) O-NO 57 0 min 0,000 mm 0,0 UV-I 0 W/m 0,1 C 1,6 C 0,0 km/h (0 Bft)
11.03.2016 06:40 1,6 C 90 % 1025,3 hPa 0,0 l/m 0,0 km/h (0 Bft) O-NO 57 0 min 0,000 mm 0,0 UV-I 0 W/m 0,1 C 1,6 C 0,0 km/h (0 Bft)
11.03.2016 06:45 1,6 C 91 % 1025,4 hPa 0,0 l/m 0,0 km/h (0 Bft) O-NO 57 0 min 0,000 mm 0,0 UV-I 0 W/m 0,3 C 1,6 C 0,0 km/h (0 Bft)
11.03.2016 06:50 1,6 C 91 % 1025,4 hPa 0,0 l/m 0,0 km/h (0 Bft) O-NO 57 0 min 0,000 mm 0,0 UV-I 0 W/m 0,3 C 1,6 C 0,0 km/h (0 Bft)
11.03.2016 06:55 1,7 C 91 % 1025,4 hPa 0,0 l/m 0,0 km/h (0 Bft) O-NO 57 0 min 0,000 mm 0,0 UV-I 0 W/m 0,4 C 1,7 C 0,0 km/h (0 Bft)
11.03.2016 07:00 1,7 C 92 % 1025,4 hPa 0,0 l/m 0,0 km/h (0 Bft) O-NO 57 0 min 0,000 mm 0,0 UV-I 0 W/m 0,5 C 1,7 C 0,0 km/h (0 Bft)
11.03.2016 07:05 1,8 C 91 % 1025,5 hPa 0,0 l/m 0,0 km/h (0 Bft) O-NO 57 0 min 0,000 mm 0,0 UV-I 3 W/m 0,5 C 1,8 C 0,0 km/h (0 Bft)
11.03.2016 07:10 1,8 C 91 % 1025,5 hPa 0,0 l/m 0,0 km/h (0 Bft) O-NO 57 0 min 0,000 mm 0,0 UV-I 4 W/m 0,5 C 1,8 C 0,0 km/h (0 Bft)
11.03.2016 07:15 1,9 C 92 % 1025,6 hPa 0,0 l/m 0,0 km/h (0 Bft) O-NO 57 0 min 0,000 mm 0,0 UV-I 9 W/m 0,7 C 1,9 C 0,0 km/h (0 Bft)
11.03.2016 07:20 2,1 C 92 % 1025,5 hPa 0,0 l/m 0,0 km/h (0 Bft) O-NO 57 0 min 0,000 mm 0,0 UV-I 11 W/m 0,9 C 2,1 C 0,0 km/h (0 Bft)
11.03.2016 07:25 2,4 C 93 % 1025,6 hPa 0,0 l/m 0,0 km/h (0 Bft) O-NO 57 0 min 0,000 mm 0,0 UV-I 14 W/m 1,4 C 2,4 C 0,0 km/h (0 Bft)
11.03.2016 07:30 2,7 C 93 % 1025,6 hPa 0,0 l/m 0,0 km/h (0 Bft) O-NO 73 0 min 0,000 mm 0,0 UV-I 14 W/m 1,7 C 2,7 C 0,0 km/h (0 Bft)
11.03.2016 07:35 3,0 C 93 % 1025,7 hPa 0,0 l/m 0,0 km/h (0 Bft) NO 38 0 min 0,000 mm 0,0 UV-I 16 W/m 2,0 C 3,0 C 0,0 km/h (0 Bft)
11.03.2016 07:40 3,2 C 92 % 1025,8 hPa 0,0 l/m 0,0 km/h (0 Bft) NO 38 0 min 0,000 mm 0,0 UV-I 20 W/m 2,0 C 3,2 C 0,0 km/h (0 Bft)
11.03.2016 07:45 3,2 C 91 % 1025,8 hPa 0,0 l/m 0,0 km/h (0 Bft) NO 38 0 min 0,000 mm 0,0 UV-I 21 W/m 1,9 C 3,2 C 0,0 km/h (0 Bft)
11.03.2016 07:50 3,3 C 91 % 1025,8 hPa 0,0 l/m 0,5 km/h (0 Bft) O-NO 57 0 min 0,000 mm 0,0 UV-I 23 W/m 2,0 C 3,3 C 11,3 km/h (2 Bft)
11.03.2016 07:55 3,5 C 91 % 1025,8 hPa 0,0 l/m 0,3 km/h (0 Bft) O-NO 63 0 min 0,000 mm 0,0 UV-I 26 W/m 2,2 C 3,5 C 8,0 km/h (2 Bft)
11.03.2016 08:00 3,7 C 90 % 1025,8 hPa 0,0 l/m 1,4 km/h (1 Bft) NO 55 0 min 0,000 mm 0,0 UV-I 30 W/m 2,2 C 3,7 C 11,3 km/h (2 Bft)
11.03.2016 08:05 3,8 C 90 % 1025,9 hPa 0,0 l/m 3,5 km/h (1 Bft) NO 42 0 min 0,000 mm 0,0 UV-I 41 W/m 2,3 C 3,8 C 14,5 km/h (3 Bft)
11.03.2016 08:10 3,9 C 90 % 1025,9 hPa 0,0 l/m 0,9 km/h (0 Bft) NO 40 0 min 0,000 mm 0,0 UV-I 49 W/m 2,4 C 3,9 C 6,4 km/h (2 Bft)
11.03.2016 08:15 4,0 C 89 % 1026,0 hPa 0,0 l/m 5,0 km/h (1 Bft) O-NO 61 0 min 0,000 mm 0,0 UV-I 47 W/m 2,4 C 4,0 C 14,5 km/h (3 Bft)
11.03.2016 08:20 4,1 C 89 % 1026,1 hPa 0,0 l/m 1,7 km/h (1 Bft) O-SO 105 0 min 0,000 mm 0,0 UV-I 39 W/m 2,5 C 4,1 C 11,3 km/h (2 Bft)
11.03.2016 08:25 4,2 C 88 % 1026,1 hPa 0,0 l/m 4,3 km/h (1 Bft) O 98 0 min 0,000 mm 0,0 UV-I 33 W/m 2,4 C 4,2 C 17,7 km/h (3 Bft)
11.03.2016 08:30 4,2 C 88 % 1026,0 hPa 0,0 l/m 5,4 km/h (1 Bft) O-NO 59 0 min 0,000 mm 0,0 UV-I 37 W/m 2,4 C 4,2 C 12,9 km/h (3 Bft)
11.03.2016 08:35 4,2 C 88 % 1026,0 hPa 0,0 l/m 4,0 km/h (1 Bft) N-NO 13 0 min 0,000 mm 0,0 UV-I 41 W/m 2,4 C 4,2 C 14,5 km/h (3 Bft)
11.03.2016 08:40 4,3 C 88 % 1026,1 hPa 0,0 l/m 2,2 km/h (1 Bft) O-NO 66 0 min 0,000 mm 0,0 UV-I 60 W/m 2,5 C 4,3 C 12,9 km/h (3 Bft)
11.03.2016 08:45 4,3 C 88 % 1026,1 hPa 0,0 l/m 0,0 km/h (0 Bft) NW 315 0 min 0,000 mm 0,0 UV-I 79 W/m 2,5 C 4,3 C 1,6 km/h (1 Bft)
11.03.2016 08:50 4,4 C 88 % 1026,1 hPa 0,0 l/m 0,5 km/h (0 Bft) O-NO 66 0 min 0,000 mm 0,2 UV-I 75 W/m 2,6 C 4,4 C 8,0 km/h (2 Bft)
11.03.2016 08:55 4,5 C 87 % 1026,1 hPa 0,0 l/m 2,2 km/h (1 Bft) NO 51 0 min 0,000 mm 0,0 UV-I 68 W/m 2,5 C 4,5 C 11,3 km/h (2 Bft)
11.03.2016 09:00 4,6 C 87 % 1026,2 hPa 0,0 l/m 3,1 km/h (1 Bft) N-NO 26 0 min 0,000 mm 0,2 UV-I 77 W/m 2,6 C 4,6 C 12,9 km/h (3 Bft)
11.03.2016 09:05 4,6 C 87 % 1026,2 hPa 0,0 l/m 1,5 km/h (1 Bft) O-NO 59 0 min 0,025 mm 0,5 UV-I 85 W/m 2,6 C 4,6 C 8,0 km/h (2 Bft)
11.03.2016 09:10 4,6 C 87 % 1026,3 hPa 0,0 l/m 5,3 km/h (1 Bft) NO 46 0 min 0,000 mm 0,5 UV-I 95 W/m 2,6 C 4,6 C 17,7 km/h (3 Bft)
11.03.2016 09:15 4,7 C 86 % 1026,3 hPa 0,0 l/m 5,6 km/h (1 Bft) N-NW 348 0 min 0,000 mm 0,6 UV-I 113 W/m 2,6 C 4,7 C 14,5 km/h (3 Bft)
11.03.2016 09:20 4,8 C 86 % 1026,3 hPa 0,0 l/m 3,3 km/h (1 Bft) N-NO 23 0 min 0,000 mm 0,7 UV-I 135 W/m 2,7 C 4,8 C 12,9 km/h (3 Bft)
11.03.2016 09:25 4,9 C 86 % 1026,3 hPa 0,0 l/m 3,6 km/h (1 Bft) NO 49 0 min 0,000 mm 0,6 UV-I 130 W/m 2,8 C 4,9 C 22,5 km/h (4 Bft)
11.03.2016 09:30 5,0 C 85 % 1026,3 hPa 0,0 l/m 7,5 km/h (2 Bft) NO 49 0 min 0,000 mm 0,7 UV-I 141 W/m 2,7 C 4,0 C 16,1 km/h (3 Bft)
11.03.2016 09:35 5,1 C 85 % 1026,3 hPa 0,0 l/m 6,2 km/h (2 Bft) O-NO 59 0 min 0,000 mm 0,7 UV-I 154 W/m 2,8 C 5,1 C 16,1 km/h (3 Bft)
11.03.2016 09:40 5,2 C 85 % 1026,4 hPa 0,0 l/m 5,1 km/h (1 Bft) O-NO 76 0 min 0,000 mm 0,8 UV-I 181 W/m 2,9 C 5,2 C 12,9 km/h (3 Bft)
11.03.2016 09:45 5,3 C 84 % 1026,4 hPa 0,0 l/m 1,9 km/h (1 Bft) N-NO 26 0 min 0,000 mm 0,9 UV-I 198 W/m 2,8 C 5,3 C 11,3 km/h (2 Bft)
11.03.2016 09:50 5,5 C 83 % 1026,5 hPa 0,0 l/m 4,9 km/h (1 Bft) N-NO 30 0 min 0,000 mm 0,8 UV-I 207 W/m 2,8 C 5,5 C 14,5 km/h (3 Bft)
11.03.2016 09:55 5,7 C 83 % 1026,5 hPa 0,0 l/m 1,8 km/h (1 Bft) NO 36 0 min 0,000 mm 0,8 UV-I 178 W/m 3,0 C 5,7 C 11,3 km/h (2 Bft)
11.03.2016 10:00 5,8 C 82 % 1026,6 hPa 0,0 l/m 3,5 km/h (1 Bft) O-NO 62 0 min 0,000 mm 0,7 UV-I 112 W/m 3,0 C 5,8 C 11,3 km/h (2 Bft)
11.03.2016 10:05 5,7 C 81 % 1026,5 hPa 0,0 l/m 5,8 km/h (2 Bft) O 94 0 min 0,051 mm 0,7 UV-I 111 W/m 2,7 C 5,7 C 14,5 km/h (3 Bft)
11.03.2016 10:10 5,7 C 81 % 1026,5 hPa 0,0 l/m 9,1 km/h (2 Bft) O-NO 57 0 min 0,000 mm 0,8 UV-I 166 W/m 2,7 C 3,5 C 17,7 km/h (3 Bft)
11.03.2016 10:15 5,9 C 81 % 1026,7 hPa 0,0 l/m 6,2 km/h (2 Bft) O-NO 78 0 min 0,000 mm 1,0 UV-I 249 W/m 2,9 C 5,9 C 12,9 km/h (3 Bft)
11.03.2016 10:20 6,3 C 80 % 1026,7 hPa 0,0 l/m 6,8 km/h (2 Bft) O 82 0 min 0,000 mm 1,1 UV-I 263 W/m 3,1 C 6,0 C 16,1 km/h (3 Bft)
11.03.2016 10:25 6,8 C 79 % 1026,7 hPa 0,0 l/m 2,7 km/h (1 Bft) NW 320 5 min 0,000 mm 1,3 UV-I 275 W/m 3,4 C 6,8 C 11,3 km/h (2 Bft)
11.03.2016 10:30 7,3 C 77 % 1026,6 hPa 0,0 l/m 0,2 km/h (0 Bft) O-NO 65 0 min 0,000 mm 1,2 UV-I 230 W/m 3,5 C 7,3 C 1,6 km/h (1 Bft)
11.03.2016 10:35 7,0 C 75 % 1026,6 hPa 0,0 l/m 7,3 km/h (2 Bft) O 82 0 min 0,000 mm 1,4 UV-I 214 W/m 2,9 C 6,3 C 19,3 km/h (3 Bft)
11.03.2016 10:40 7,2 C 75 % 1026,7 hPa 0,0 l/m 4,8 km/h (1 Bft) N-NO 17 5 min 0,000 mm 1,5 UV-I 376 W/m 3,1 C 7,2 C 12,9 km/h (3 Bft)
11.03.2016 10:45 8,3 C 72 % 1026,7 hPa 0,0 l/m 0,0 km/h (0 Bft) N-NO 23 5 min 0,000 mm 1,6 UV-I 471 W/m 3,6 C 8,3 C 1,6 km/h (1 Bft)
11.03.2016 10:50 8,5 C 70 % 1026,7 hPa 0,0 l/m 0,0 km/h (0 Bft) N-NO 13 5 min 0,000 mm 1,5 UV-I 420 W/m 3,3 C 8,5 C 1,6 km/h (1 Bft)
11.03.2016 10:55 8,3 C 69 % 1026,7 hPa 0,0 l/m 3,0 km/h (1 Bft) O-NO 74 5 min 0,000 mm 1,4 UV-I 395 W/m 3,0 C 8,3 C 14,5 km/h (3 Bft)
11.03.2016 11:00 8,2 C 69 % 1026,8 hPa 0,0 l/m 0,3 km/h (0 Bft) O-NO 59 0 min 0,000 mm 1,5 UV-I 252 W/m 2,9 C 8,2 C 1,6 km/h (1 Bft)
11.03.2016 11:05 8,3 C 69 % 1026,8 hPa 0,0 l/m 2,4 km/h (1 Bft) NO 40 5 min 0,127 mm 1,6 UV-I 337 W/m 3,0 C 8,3 C 16,1 km/h (3 Bft)
11.03.2016 11:10 8,8 C 70 % 1026,8 hPa 0,0 l/m 0,7 km/h (0 Bft) NW 321 5 min 0,000 mm 1,8 UV-I 457 W/m 3,6 C 8,8 C 12,9 km/h (3 Bft)
11.03.2016 11:15 9,2 C 68 % 1026,8 hPa 0,0 l/m 2,7 km/h (1 Bft) N 5 5 min 0,000 mm 1,9 UV-I 447 W/m 3,6 C 9,2 C 11,3 km/h (2 Bft)
11.03.2016 11:20 9,2 C 66 % 1026,7 hPa 0,0 l/m 2,0 km/h (1 Bft) NO 49 5 min 0,000 mm 1,9 UV-I 444 W/m 3,2 C 9,2 C 14,5 km/h (3 Bft)
11.03.2016 11:25 9,3 C 66 % 1026,8 hPa 0,0 l/m 2,0 km/h (1 Bft) NO 40 5 min 0,000 mm 2,1 UV-I 491 W/m 3,3 C 9,3 C 16,1 km/h (3 Bft)
11.03.2016 11:30 9,3 C 64 % 1026,8 hPa 0,0 l/m 7,0 km/h (2 Bft) O-NO 70 5 min 0,000 mm 2,1 UV-I 513 W/m 2,8 C 8,9 C 16,1 km/h (3 Bft)
11.03.2016 11:35 9,6 C 62 % 1026,6 hPa 0,0 l/m 7,6 km/h (2 Bft) N-NO 32 5 min 0,000 mm 2,2 UV-I 575 W/m 2,7 C 8,7 C 17,7 km/h (3 Bft)
11.03.2016 11:40 9,1 C 64 % 1026,7 hPa 0,0 l/m 8,9 km/h (2 Bft) O-NO 62 5 min 0,000 mm 2,2 UV-I 551 W/m 2,7 C 7,3 C 17,7 km/h (3 Bft)
11.03.2016 11:45 10,4 C 62 % 1026,8 hPa 0,0 l/m 1,0 km/h (0 Bft) NO 45 5 min 0,000 mm 2,2 UV-I 525 W/m 3,4 C 10,4 C 11,3 km/h (2 Bft)
11.03.2016 11:50 10,3 C 61 % 1026,7 hPa 0,0 l/m 0,4 km/h (0 Bft) N-NO 28 5 min 0,000 mm 2,0 UV-I 517 W/m 3,1 C 10,3 C 3,2 km/h (1 Bft)
11.03.2016 11:55 9,6 C 60 % 1026,7 hPa 0,0 l/m 8,8 km/h (2 Bft) O-NO 57 0 min 0,000 mm 2,1 UV-I 314 W/m 2,2 C 7,9 C 20,9 km/h (4 Bft)
11.03.2016 12:00 9,1 C 61 % 1026,7 hPa 0,0 l/m 10,2 km/h (2 Bft) N 9 5 min 0,000 mm 2,4 UV-I 580 W/m 2,0 C 6,5 C 17,7 km/h (3 Bft)
11.03.2016 12:05 10,0 C 62 % 1026,7 hPa 0,0 l/m 2,3 km/h (1 Bft) N-NO 16 5 min 0,229 mm 2,1 UV-I 444 W/m 3,1 C 10,0 C 12,9 km/h (3 Bft)
11.03.2016 12:10 10,3 C 60 % 1026,7 hPa 0,0 l/m 6,9 km/h (2 Bft) N-NO 14 0 min 0,000 mm 2,0 UV-I 192 W/m 2,9 C 9,9 C 12,9 km/h (3 Bft)
11.03.2016 12:15 10,2 C 59 % 1026,8 hPa 0,0 l/m 4,1 km/h (1 Bft) N-NO 13 5 min 0,000 mm 2,3 UV-I 626 W/m 2,6 C 10,2 C 11,3 km/h (2 Bft)
11.03.2016 12:20 11,3 C 59 % 1026,8 hPa 0,0 l/m 0,2 km/h (0 Bft) O-NO 69 5 min 0,000 mm 2,2 UV-I 592 W/m 3,6 C 11,3 C 1,6 km/h (1 Bft)
11.03.2016 12:25 11,2 C 57 % 1026,7 hPa 0,0 l/m 2,4 km/h (1 Bft) O 84 5 min 0,000 mm 2,0 UV-I 426 W/m 3,0 C 11,2 C 14,5 km/h (3 Bft)
11.03.2016 12:30 9,6 C 55 % 1026,8 hPa 0,0 l/m 9,9 km/h (2 Bft) O 94 5 min 0,000 mm 2,5 UV-I 654 W/m 1,0 C 7,2 C 17,7 km/h (3 Bft)
11.03.2016 12:35 9,6 C 58 % 1026,7 hPa 0,0 l/m 8,9 km/h (2 Bft) NW 317 5 min 0,000 mm 2,5 UV-I 718 W/m 1,8 C 7,8 C 19,3 km/h (3 Bft)
11.03.2016 12:40 9,4 C 58 % 1026,5 hPa 0,0 l/m 5,2 km/h (1 Bft) O-NO 59 5 min 0,000 mm 1,4 UV-I 333 W/m 1,6 C 9,4 C 12,9 km/h (3 Bft)
11.03.2016 12:45 9,6 C 60 % 1026,7 hPa 0,0 l/m 2,0 km/h (1 Bft) O-NO 61 0 min 0,000 mm 1,3 UV-I 147 W/m 2,2 C 9,6 C 14,5 km/h (3 Bft)
11.03.2016 12:50 9,9 C 59 % 1026,8 hPa 0,0 l/m 1,7 km/h (1 Bft) NO 47 0 min 0,000 mm 1,8 UV-I 283 W/m 2,3 C 9,9 C 16,1 km/h (3 Bft)
11.03.2016 12:55 9,2 C 59 % 1026,8 hPa 0,0 l/m 8,1 km/h (2 Bft) N-NO 32 0 min 0,000 mm 1,7 UV-I 168 W/m 1,6 C 7,9 C 14,5 km/h (3 Bft)
11.03.2016 13:00 9,4 C 58 % 1026,7 hPa 0,0 l/m 10,3 km/h (2 Bft) N 5 5 min 0,000 mm 2,2 UV-I 748 W/m 1,6 C 6,8 C 20,9 km/h (4 Bft)
11.03.2016 13:05 9,4 C 57 % 1026,7 hPa 0,0 l/m 3,7 km/h (1 Bft) O-NO 67 5 min 0,228 mm 1,9 UV-I 472 W/m 1,3 C 9,4 C 16,1 km/h (3 Bft)
11.03.2016 13:10 9,3 C 59 % 1026,5 hPa 0,0 l/m 8,5 km/h (2 Bft) O-NO 68 5 min 0,000 mm 1,8 UV-I 578 W/m 1,7 C 7,8 C 16,1 km/h (3 Bft)
11.03.2016 13:15 8,8 C 60 % 1026,5 hPa 0,0 l/m 7,1 km/h (2 Bft) O-NO 70 0 min 0,000 mm 1,3 UV-I 214 W/m 1,5 C 8,3 C 22,5 km/h (4 Bft)
11.03.2016 13:20 8,7 C 59 % 1026,5 hPa 0,0 l/m 8,5 km/h (2 Bft) N-NO 15 0 min 0,000 mm 1,5 UV-I 184 W/m 1,1 C 7,1 C 16,1 km/h (3 Bft)
11.03.2016 13:25 8,7 C 58 % 1026,5 hPa 0,0 l/m 6,3 km/h (2 Bft) O-NO 66 0 min 0,000 mm 1,6 UV-I 178 W/m 0,9 C 8,7 C 14,5 km/h (3 Bft)
11.03.2016 13:30 8,6 C 58 % 1026,5 hPa 0,0 l/m 11,2 km/h (2 Bft) NO 47 0 min 0,000 mm 1,6 UV-I 239 W/m 0,8 C 5,3 C 20,9 km/h (4 Bft)
11.03.2016 13:35 8,6 C 59 % 1026,5 hPa 0,0 l/m 8,6 km/h (2 Bft) O-NO 66 5 min 0,000 mm 1,8 UV-I 340 W/m 1,0 C 7,0 C 16,1 km/h (3 Bft)
11.03.2016 13:40 8,9 C 58 % 1026,5 hPa 0,0 l/m 10,1 km/h (2 Bft) O-SO 121 0 min 0,000 mm 1,5 UV-I 287 W/m 1,1 C 6,3 C 22,5 km/h (4 Bft)
11.03.2016 13:45 8,9 C 58 % 1026,4 hPa 0,0 l/m 5,2 km/h (1 Bft) O-NO 63 0 min 0,000 mm 1,2 UV-I 208 W/m 1,1 C 8,9 C 16,1 km/h (3 Bft)
11.03.2016 13:50 8,7 C 58 % 1026,4 hPa 0,0 l/m 10,7 km/h (2 Bft) O-NO 60 0 min 0,000 mm 1,3 UV-I 178 W/m 0,9 C 5,7 C 24,1 km/h (4 Bft)
11.03.2016 13:55 8,8 C 58 % 1026,4 hPa 0,0 l/m 5,2 km/h (1 Bft) O-SO 105 5 min 0,000 mm 1,9 UV-I 323 W/m 1,0 C 8,8 C 16,1 km/h (3 Bft)
11.03.2016 14:00 8,8 C 58 % 1026,4 hPa 0,0 l/m 8,4 km/h (2 Bft) NO 38 5 min 0,000 mm 1,5 UV-I 488 W/m 1,0 C 7,3 C 16,1 km/h (3 Bft)
11.03.2016 14:05 8,9 C 57 % 1026,5 hPa 0,0 l/m 6,5 km/h (2 Bft) S-SO 156 0 min 0,178 mm 0,9 UV-I 154 W/m 0,9 C 8,9 C 20,9 km/h (4 Bft)
11.03.2016 14:10 8,6 C 58 % 1026,4 hPa 0,0 l/m 10,4 km/h (2 Bft) O-NO 59 0 min 0,000 mm 0,9 UV-I 149 W/m 0,8 C 5,8 C 17,7 km/h (3 Bft)
11.03.2016 14:15 8,5 C 59 % 1026,6 hPa 0,0 l/m 5,1 km/h (1 Bft) N-NO 28 0 min 0,000 mm 0,9 UV-I 134 W/m 1,0 C 8,5 C 16,1 km/h (3 Bft)
11.03.2016 14:20 8,3 C 59 % 1026,5 hPa 0,0 l/m 11,7 km/h (2 Bft) O-NO 61 0 min 0,000 mm 1,1 UV-I 157 W/m 0,8 C 4,7 C 19,3 km/h (3 Bft)
11.03.2016 14:25 8,2 C 59 % 1026,5 hPa 0,0 l/m 6,0 km/h (2 Bft) O-NO 61 0 min 0,000 mm 1,2 UV-I 227 W/m 0,7 C 8,2 C 16,1 km/h (3 Bft)
11.03.2016 14:30 8,3 C 59 % 1026,5 hPa 0,0 l/m 6,9 km/h (2 Bft) O-NO 73 0 min 0,000 mm 1,1 UV-I 198 W/m 0,8 C 7,9 C 19,3 km/h (3 Bft)
11.03.2016 14:35 8,2 C 60 % 1026,4 hPa 0,0 l/m 6,8 km/h (2 Bft) NO 51 0 min 0,000 mm 0,8 UV-I 149 W/m 0,9 C 7,9 C 16,1 km/h (3 Bft)
11.03.2016 14:40 8,1 C 59 % 1026,4 hPa 0,0 l/m 8,5 km/h (2 Bft) NO 44 0 min 0,000 mm 0,9 UV-I 144 W/m 0,6 C 6,5 C 19,3 km/h (3 Bft)
11.03.2016 14:45 8,1 C 59 % 1026,4 hPa 0,0 l/m 8,7 km/h (2 Bft) NO 51 0 min 0,000 mm 1,0 UV-I 170 W/m 0,6 C 6,4 C 19,3 km/h (3 Bft)
11.03.2016 14:50 8,2 C 61 % 1026,4 hPa 0,0 l/m 0,3 km/h (0 Bft) O-NO 74 0 min 0,000 mm 1,0 UV-I 199 W/m 1,1 C 8,2 C 4,8 km/h (1 Bft)
11.03.2016 14:55 8,2 C 60 % 1026,5 hPa 0,0 l/m 6,2 km/h (2 Bft) O 92 0 min 0,000 mm 0,9 UV-I 174 W/m 0,9 C 8,2 C 16,1 km/h (3 Bft)
11.03.2016 15:00 8,0 C 61 % 1026,5 hPa 0,0 l/m 5,8 km/h (2 Bft) O-NO 63 0 min 0,000 mm 0,9 UV-I 163 W/m 0,9 C 8,0 C 12,9 km/h (3 Bft)
11.03.2016 15:05 7,9 C 62 % 1026,5 hPa 0,0 l/m 5,8 km/h (2 Bft) O-NO 74 0 min 0,102 mm 0,8 UV-I 152 W/m 1,1 C 7,9 C 12,9 km/h (3 Bft)
11.03.2016 15:10 8,1 C 62 % 1026,5 hPa 0,0 l/m 0,8 km/h (0 Bft) O 101 0 min 0,000 mm 0,7 UV-I 120 W/m 1,3 C 8,1 C 11,3 km/h (2 Bft)
11.03.2016 15:15 8,0 C 61 % 1026,6 hPa 0,0 l/m 1,3 km/h (1 Bft) O 83 0 min 0,000 mm 0,6 UV-I 97 W/m 0,9 C 8,0 C 9,7 km/h (2 Bft)
11.03.2016 15:20 7,8 C 61 % 1026,5 hPa 0,0 l/m 5,3 km/h (1 Bft) NO 56 0 min 0,000 mm 0,6 UV-I 101 W/m 0,8 C 7,8 C 12,9 km/h (3 Bft)
11.03.2016 15:25 7,8 C 62 % 1026,5 hPa 0,0 l/m 2,0 km/h (1 Bft) NO 49 0 min 0,000 mm 0,8 UV-I 139 W/m 1,0 C 7,8 C 9,7 km/h (2 Bft)
11.03.2016 15:30 7,8 C 63 % 1026,5 hPa 0,0 l/m 2,3 km/h (1 Bft) O-SO 103 0 min 0,000 mm 0,8 UV-I 164 W/m 1,2 C 7,8 C 12,9 km/h (3 Bft)
11.03.2016 15:35 7,9 C 62 % 1026,6 hPa 0,0 l/m 3,4 km/h (1 Bft) NO 54 0 min 0,000 mm 0,8 UV-I 167 W/m 1,1 C 7,9 C 9,7 km/h (2 Bft)
11.03.2016 15:40 7,9 C 61 % 1026,5 hPa 0,0 l/m 4,7 km/h (1 Bft) O-NO 59 0 min 0,000 mm 0,7 UV-I 147 W/m 0,9 C 7,9 C 20,9 km/h (4 Bft)
11.03.2016 15:45 7,9 C 61 % 1026,5 hPa 0,0 l/m 6,7 km/h (2 Bft) NO 44 0 min 0,000 mm 0,6 UV-I 129 W/m 0,9 C 7,7 C 16,1 km/h (3 Bft)
11.03.2016 15:50 8,0 C 62 % 1026,5 hPa 0,0 l/m 4,0 km/h (1 Bft) O-NO 63 0 min 0,000 mm 0,5 UV-I 106 W/m 1,2 C 8,0 C 12,9 km/h (3 Bft)
11.03.2016 15:55 8,1 C 62 % 1026,5 hPa 0,0 l/m 1,7 km/h (1 Bft) O 93 0 min 0,000 mm 0,6 UV-I 110 W/m 1,3 C 8,1 C 8,0 km/h (2 Bft)
11.03.2016 16:00 8,2 C 61 % 1026,5 hPa 0,0 l/m 0,4 km/h (0 Bft) N 5 0 min 0,000 mm 0,6 UV-I 112 W/m 1,1 C 8,2 C 6,4 km/h (2 Bft)
11.03.2016 16:05 8,2 C 60 % 1026,5 hPa 0,0 l/m 6,7 km/h (2 Bft) NO 51 0 min 0,076 mm 0,6 UV-I 111 W/m 0,9 C 8,0 C 12,9 km/h (3 Bft)
11.03.2016 16:10 8,0 C 61 % 1026,5 hPa 0,0 l/m 5,7 km/h (1 Bft) O 84 0 min 0,000 mm 0,6 UV-I 117 W/m 0,9 C 8,0 C 12,9 km/h (3 Bft)
11.03.2016 16:15 7,9 C 62 % 1026,5 hPa 0,0 l/m 1,4 km/h (1 Bft) O-NO 78 0 min 0,000 mm 0,3 UV-I 103 W/m 1,1 C 7,9 C 9,7 km/h (2 Bft)
11.03.2016 16:20 7,9 C 61 % 1026,5 hPa 0,0 l/m 6,6 km/h (2 Bft) NO 39 0 min 0,000 mm 0,0 UV-I 86 W/m 0,9 C 7,8 C 16,1 km/h (3 Bft)
11.03.2016 16:25 7,8 C 62 % 1026,4 hPa 0,0 l/m 5,6 km/h (1 Bft) O-NO 58 0 min 0,000 mm 0,0 UV-I 82 W/m 1,0 C 7,8 C 14,5 km/h (3 Bft)
11.03.2016 16:30 7,7 C 62 % 1026,4 hPa 0,0 l/m 5,3 km/h (1 Bft) O-NO 61 0 min 0,000 mm 0,4 UV-I 80 W/m 0,9 C 7,7 C 11,3 km/h (2 Bft)
11.03.2016 16:35 7,7 C 62 % 1026,5 hPa 0,0 l/m 3,7 km/h (1 Bft) O-NO 66 0 min 0,000 mm 0,5 UV-I 85 W/m 0,9 C 7,7 C 12,9 km/h (3 Bft)
11.03.2016 16:40 7,8 C 63 % 1026,5 hPa 0,0 l/m 1,9 km/h (1 Bft) O-SO 108 0 min 0,000 mm 0,5 UV-I 124 W/m 1,2 C 7,8 C 11,3 km/h (2 Bft)
11.03.2016 16:45 7,8 C 62 % 1026,5 hPa 0,0 l/m 4,1 km/h (1 Bft) O-NO 59 0 min 0,000 mm 0,0 UV-I 99 W/m 1,0 C 7,8 C 11,3 km/h (2 Bft)
11.03.2016 16:50 7,8 C 63 % 1026,5 hPa 0,0 l/m 0,6 km/h (0 Bft) O-NO 61 0 min 0,000 mm 0,0 UV-I 83 W/m 1,2 C 7,8 C 8,0 km/h (2 Bft)
11.03.2016 16:55 7,8 C 63 % 1026,4 hPa 0,0 l/m 1,9 km/h (1 Bft) O-NO 63 0 min 0,000 mm 0,0 UV-I 75 W/m 1,2 C 7,8 C 8,0 km/h (2 Bft)
11.03.2016 17:00 7,7 C 63 % 1026,4 hPa 0,0 l/m 2,5 km/h (1 Bft) O-NO 67 0 min 0,000 mm 0,0 UV-I 71 W/m 1,1 C 7,7 C 11,3 km/h (2 Bft)
11.03.2016 17:05 7,6 C 62 % 1026,5 hPa 0,0 l/m 3,7 km/h (1 Bft) NO 55 0 min 0,051 mm 0,0 UV-I 71 W/m 0,8 C 7,6 C 9,7 km/h (2 Bft)
11.03.2016 17:10 7,6 C 63 % 1026,4 hPa 0,0 l/m 5,1 km/h (1 Bft) O-NO 69 0 min 0,000 mm 0,0 UV-I 70 W/m 1,0 C 7,6 C 11,3 km/h (2 Bft)
11.03.2016 17:15 7,5 C 63 % 1026,5 hPa 0,0 l/m 3,2 km/h (1 Bft) O-NO 61 0 min 0,000 mm 0,0 UV-I 64 W/m 0,9 C 7,5 C 9,7 km/h (2 Bft)
11.03.2016 17:20 7,5 C 63 % 1026,5 hPa 0,0 l/m 4,6 km/h (1 Bft) O-NO 68 0 min 0,000 mm 0,0 UV-I 59 W/m 0,9 C 7,5 C 12,9 km/h (3 Bft)
11.03.2016 17:25 7,4 C 62 % 1026,5 hPa 0,0 l/m 5,4 km/h (1 Bft) O-SO 107 0 min 0,000 mm 0,0 UV-I 62 W/m 0,6 C 7,4 C 14,5 km/h (3 Bft)
11.03.2016 17:30 7,4 C 63 % 1026,6 hPa 0,0 l/m 2,4 km/h (1 Bft) NO 55 0 min 0,000 mm 0,0 UV-I 51 W/m 0,8 C 7,4 C 12,9 km/h (3 Bft)
11.03.2016 17:35 7,4 C 63 % 1026,5 hPa 0,0 l/m 4,6 km/h (1 Bft) NO 54 0 min 0,000 mm 0,0 UV-I 39 W/m 0,8 C 7,4 C 12,9 km/h (3 Bft)
11.03.2016 17:40 7,3 C 63 % 1026,6 hPa 0,0 l/m 3,2 km/h (1 Bft) O-SO 107 0 min 0,000 mm 0,0 UV-I 33 W/m 0,7 C 7,3 C 9,7 km/h (2 Bft)
11.03.2016 17:45 7,3 C 63 % 1026,6 hPa 0,0 l/m 0,7 km/h (0 Bft) NO 54 0 min 0,000 mm 0,0 UV-I 26 W/m 0,7 C 7,3 C 8,0 km/h (2 Bft)
11.03.2016 17:50 7,3 C 64 % 1026,6 hPa 0,0 l/m 0,0 km/h (0 Bft) O-NO 71 0 min 0,000 mm 0,0 UV-I 22 W/m 1,0 C 7,3 C 0,0 km/h (0 Bft)
11.03.2016 17:55 7,2 C 64 % 1026,6 hPa 0,0 l/m 0,0 km/h (0 Bft) O-NO 75 0 min 0,000 mm 0,0 UV-I 20 W/m 0,9 C 7,2 C 1,6 km/h (1 Bft)
11.03.2016 18:00 7,2 C 65 % 1026,7 hPa 0,0 l/m 0,0 km/h (0 Bft) NO 55 0 min 0,000 mm 0,0 UV-I 17 W/m 1,1 C 7,2 C 0,0 km/h (0 Bft)
11.03.2016 18:05 7,1 C 65 % 1026,7 hPa 0,0 l/m 0,0 km/h (0 Bft) NO 56 0 min 0,025 mm 0,0 UV-I 17 W/m 1,0 C 7,1 C 0,0 km/h (0 Bft)
11.03.2016 18:10 7,1 C 65 % 1026,8 hPa 0,0 l/m 0,0 km/h (0 Bft) NO 47 0 min 0,000 mm 0,0 UV-I 11 W/m 1,0 C 7,1 C 0,0 km/h (0 Bft)
11.03.2016 18:15 7,0 C 65 % 1026,8 hPa 0,0 l/m 0,0 km/h (0 Bft) NO 47 0 min 0,000 mm 0,0 UV-I 7 W/m 0,9 C 7,0 C 0,0 km/h (0 Bft)
11.03.2016 18:20 7,0 C 65 % 1026,8 hPa 0,0 l/m 0,0 km/h (0 Bft) N-NO 29 0 min 0,000 mm 0,0 UV-I 2 W/m 0,9 C 7,0 C 0,0 km/h (0 Bft)
11.03.2016 18:25 6,9 C 66 % 1026,8 hPa 0,0 l/m 0,0 km/h (0 Bft) O-SO 105 0 min 0,000 mm 0,0 UV-I 0 W/m 1,0 C 6,9 C 0,0 km/h (0 Bft)
11.03.2016 18:30 6,8 C 66 % 1026,9 hPa 0,0 l/m 0,0 km/h (0 Bft) O-SO 105 0 min 0,000 mm 0,0 UV-I 0 W/m 0,9 C 6,8 C 0,0 km/h (0 Bft)
11.03.2016 18:35 6,8 C 66 % 1026,9 hPa 0,0 l/m 0,0 km/h (0 Bft) O-NO 63 0 min 0,000 mm 0,0 UV-I 0 W/m 0,9 C 6,8 C 0,0 km/h (0 Bft)
11.03.2016 18:40 6,7 C 67 % 1027,0 hPa 0,0 l/m 0,0 km/h (0 Bft) N-NO 32 0 min 0,000 mm 0,0 UV-I 0 W/m 1,0 C 6,7 C 0,0 km/h (0 Bft)
11.03.2016 18:45 6,7 C 68 % 1027,0 hPa 0,0 l/m 0,0 km/h (0 Bft) N-NO 12 0 min 0,000 mm 0,0 UV-I 0 W/m 1,2 C 6,7 C 0,0 km/h (0 Bft)
11.03.2016 18:50 6,7 C 68 % 1027,1 hPa 0,0 l/m 0,0 km/h (0 Bft) N-NO 33 0 min 0,000 mm 0,0 UV-I 0 W/m 1,2 C 6,7 C 0,0 km/h (0 Bft)
11.03.2016 18:55 6,6 C 67 % 1027,2 hPa 0,0 l/m 0,0 km/h (0 Bft) N-NO 33 0 min 0,000 mm 0,0 UV-I 0 W/m 0,9 C 6,6 C 0,0 km/h (0 Bft)
11.03.2016 19:00 6,6 C 68 % 1027,2 hPa 0,0 l/m 0,0 km/h (0 Bft) N-NO 33 0 min 0,000 mm 0,0 UV-I 0 W/m 1,1 C 6,6 C 0,0 km/h (0 Bft)
11.03.2016 19:05 6,6 C 68 % 1027,2 hPa 0,0 l/m 0,0 km/h (0 Bft) N-NO 33 0 min 0,000 mm 0,0 UV-I 0 W/m 1,1 C 6,6 C 0,0 km/h (0 Bft)
11.03.2016 19:10 6,5 C 69 % 1027,3 hPa 0,0 l/m 0,0 km/h (0 Bft) NO 40 0 min 0,000 mm 0,0 UV-I 0 W/m 1,2 C 6,5 C 0,0 km/h (0 Bft)
11.03.2016 19:15 6,4 C 68 % 1027,3 hPa 0,0 l/m 0,0 km/h (0 Bft) NO 40 0 min 0,000 mm 0,0 UV-I 0 W/m 0,9 C 6,4 C 0,0 km/h (0 Bft)
11.03.2016 19:20 6,3 C 68 % 1027,4 hPa 0,0 l/m 0,0 km/h (0 Bft) NO 40 0 min 0,000 mm 0,0 UV-I 0 W/m 0,8 C 6,3 C 0,0 km/h (0 Bft)
11.03.2016 19:25 6,3 C 68 % 1027,5 hPa 0,0 l/m 0,0 km/h (0 Bft) NO 40 0 min 0,000 mm 0,0 UV-I 0 W/m 0,8 C 6,3 C 0,0 km/h (0 Bft)
11.03.2016 19:30 6,3 C 69 % 1027,4 hPa 0,0 l/m 0,0 km/h (0 Bft) NO 40 0 min 0,000 mm 0,0 UV-I 0 W/m 1,0 C 6,3 C 0,0 km/h (0 Bft)
11.03.2016 19:35 6,2 C 70 % 1027,5 hPa 0,0 l/m 0,0 km/h (0 Bft) NO 40 0 min 0,000 mm 0,0 UV-I 0 W/m 1,1 C 6,2 C 0,0 km/h (0 Bft)
11.03.2016 19:40 6,2 C 70 % 1027,5 hPa 0,0 l/m 0,0 km/h (0 Bft) NO 40 0 min 0,000 mm 0,0 UV-I 0 W/m 1,1 C 6,2 C 0,0 km/h (0 Bft)
11.03.2016 19:45 6,1 C 70 % 1027,6 hPa 0,0 l/m 0,0 km/h (0 Bft) NO 40 0 min 0,000 mm 0,0 UV-I 0 W/m 1,0 C 6,1 C 0,0 km/h (0 Bft)
11.03.2016 19:50 6,1 C 71 % 1027,6 hPa 0,0 l/m 0,0 km/h (0 Bft) NO 40 0 min 0,000 mm 0,0 UV-I 0 W/m 1,2 C 6,1 C 0,0 km/h (0 Bft)
11.03.2016 19:55 6,0 C 71 % 1027,7 hPa 0,0 l/m 0,0 km/h (0 Bft) NO 40 0 min 0,000 mm 0,0 UV-I 0 W/m 1,1 C 6,0 C 0,0 km/h (0 Bft)
11.03.2016 20:00 5,8 C 71 % 1027,7 hPa 0,0 l/m 0,0 km/h (0 Bft) NO 40 0 min 0,000 mm 0,0 UV-I 0 W/m 1,0 C 5,8 C 0,0 km/h (0 Bft)
11.03.2016 20:05 5,8 C 72 % 1027,8 hPa 0,0 l/m 0,0 km/h (0 Bft) NO 40 0 min 0,026 mm 0,0 UV-I 0 W/m 1,2 C 5,8 C 0,0 km/h (0 Bft)
11.03.2016 20:10 5,7 C 72 % 1027,9 hPa 0,0 l/m 0,0 km/h (0 Bft) N-NO 33 0 min 0,000 mm 0,0 UV-I 0 W/m 1,1 C 5,7 C 0,0 km/h (0 Bft)
11.03.2016 20:15 5,7 C 72 % 1027,9 hPa 0,0 l/m 0,0 km/h (0 Bft) N-NO 33 0 min 0,000 mm 0,0 UV-I 0 W/m 1,1 C 5,7 C 0,0 km/h (0 Bft)
11.03.2016 20:20 5,8 C 72 % 1027,9 hPa 0,0 l/m 0,0 km/h (0 Bft) N-NO 19 0 min 0,000 mm 0,0 UV-I 0 W/m 1,2 C 5,8 C 0,0 km/h (0 Bft)
11.03.2016 20:25 5,8 C 73 % 1028,0 hPa 0,0 l/m 0,0 km/h (0 Bft) N-NO 18 0 min 0,000 mm 0,0 UV-I 0 W/m 1,3 C 5,8 C 0,0 km/h (0 Bft)
11.03.2016 20:30 5,7 C 74 % 1028,1 hPa 0,0 l/m 0,0 km/h (0 Bft) NO 41 0 min 0,000 mm 0,0 UV-I 0 W/m 1,4 C 5,7 C 0,0 km/h (0 Bft)
11.03.2016 20:35 5,7 C 75 % 1028,2 hPa 0,0 l/m 0,2 km/h (0 Bft) N-NO 22 0 min 0,000 mm 0,0 UV-I 0 W/m 1,6 C 5,7 C 8,0 km/h (2 Bft)
11.03.2016 20:40 5,7 C 75 % 1028,2 hPa 0,0 l/m 0,4 km/h (0 Bft) N-NO 26 0 min 0,000 mm 0,0 UV-I 0 W/m 1,6 C 5,7 C 4,8 km/h (1 Bft)
11.03.2016 20:45 5,6 C 76 % 1028,2 hPa 0,0 l/m 0,1 km/h (0 Bft) N 355 0 min 0,000 mm 0,0 UV-I 0 W/m 1,7 C 5,6 C 3,2 km/h (1 Bft)
11.03.2016 20:50 5,6 C 76 % 1028,2 hPa 0,0 l/m 0,3 km/h (0 Bft) N-NO 17 0 min 0,000 mm 0,0 UV-I 0 W/m 1,7 C 5,6 C 4,8 km/h (1 Bft)
11.03.2016 20:55 5,4 C 77 % 1028,3 hPa 0,0 l/m 0,4 km/h (0 Bft) N-NO 26 0 min 0,000 mm 0,0 UV-I 0 W/m 1,7 C 5,4 C 8,0 km/h (2 Bft)
11.03.2016 21:00 5,4 C 77 % 1028,3 hPa 0,0 l/m 0,1 km/h (0 Bft) N 9 0 min 0,000 mm 0,0 UV-I 0 W/m 1,7 C 5,4 C 3,2 km/h (1 Bft)
11.03.2016 21:05 5,3 C 77 % 1028,4 hPa 0,0 l/m 0,2 km/h (0 Bft) O-NO 67 0 min 0,025 mm 0,0 UV-I 0 W/m 1,6 C 5,3 C 6,4 km/h (2 Bft)
11.03.2016 21:10 5,2 C 77 % 1028,5 hPa 0,0 l/m 0,1 km/h (0 Bft) N-NO 33 0 min 0,000 mm 0,0 UV-I 0 W/m 1,5 C 5,2 C 3,2 km/h (1 Bft)
11.03.2016 21:15 5,2 C 78 % 1028,5 hPa 0,0 l/m 0,1 km/h (0 Bft) O-NO 63 0 min 0,000 mm 0,0 UV-I 0 W/m 1,7 C 5,2 C 1,6 km/h (1 Bft)
11.03.2016 21:20 5,1 C 78 % 1028,5 hPa 0,0 l/m 0,9 km/h (0 Bft) O-NO 71 0 min 0,000 mm 0,0 UV-I 0 W/m 1,6 C 5,1 C 12,9 km/h (3 Bft)
11.03.2016 21:25 4,9 C 78 % 1028,5 hPa 0,0 l/m 1,1 km/h (1 Bft) N-NO 32 0 min 0,000 mm 0,0 UV-I 0 W/m 1,4 C 4,9 C 14,5 km/h (3 Bft)
11.03.2016 21:30 4,8 C 78 % 1028,5 hPa 0,0 l/m 1,5 km/h (1 Bft) NO 56 0 min 0,000 mm 0,0 UV-I 0 W/m 1,3 C 4,8 C 12,9 km/h (3 Bft)
11.03.2016 21:35 4,8 C 79 % 1028,5 hPa 0,0 l/m 1,6 km/h (1 Bft) O-NO 64 0 min 0,000 mm 0,0 UV-I 0 W/m 1,5 C 4,8 C 14,5 km/h (3 Bft)
11.03.2016 21:40 4,7 C 79 % 1028,6 hPa 0,0 l/m 3,2 km/h (1 Bft) O-NO 61 0 min 0,000 mm 0,0 UV-I 0 W/m 1,4 C 4,7 C 14,5 km/h (3 Bft)
11.03.2016 21:45 4,7 C 79 % 1028,6 hPa 0,0 l/m 0,0 km/h (0 Bft) NO 34 0 min 0,000 mm 0,0 UV-I 0 W/m 1,4 C 4,7 C 3,2 km/h (1 Bft)
11.03.2016 21:50 4,6 C 79 % 1028,6 hPa 0,0 l/m 0,3 km/h (0 Bft) O 84 0 min 0,000 mm 0,0 UV-I 0 W/m 1,3 C 4,6 C 6,4 km/h (2 Bft)
11.03.2016 21:55 4,6 C 79 % 1028,6 hPa 0,0 l/m 0,8 km/h (0 Bft) N-NO 31 0 min 0,000 mm 0,0 UV-I 0 W/m 1,3 C 4,6 C 11,3 km/h (2 Bft)
11.03.2016 22:00 4,5 C 80 % 1028,7 hPa 0,0 l/m 1,4 km/h (1 Bft) N-NO 30 0 min 0,000 mm 0,0 UV-I 0 W/m 1,4 C 4,5 C 11,3 km/h (2 Bft)
11.03.2016 22:05 4,4 C 80 % 1028,7 hPa 0,0 l/m 0,9 km/h (0 Bft) NO 44 0 min 0,025 mm 0,0 UV-I 0 W/m 1,3 C 4,4 C 8,0 km/h (2 Bft)
11.03.2016 22:10 4,4 C 80 % 1028,7 hPa 0,0 l/m 0,0 km/h (0 Bft) NO 37 0 min 0,000 mm 0,0 UV-I 0 W/m 1,3 C 4,4 C 0,0 km/h (0 Bft)
11.03.2016 22:15 4,4 C 80 % 1028,8 hPa 0,0 l/m 0,0 km/h (0 Bft) O-NO 57 0 min 0,000 mm 0,0 UV-I 0 W/m 1,3 C 4,4 C 0,0 km/h (0 Bft)
11.03.2016 22:20 4,4 C 80 % 1028,8 hPa 0,0 l/m 0,1 km/h (0 Bft) NO 40 0 min 0,000 mm 0,0 UV-I 0 W/m 1,3 C 4,4 C 3,2 km/h (1 Bft)
11.03.2016 22:25 4,3 C 80 % 1028,8 hPa 0,0 l/m 0,6 km/h (0 Bft) NO 51 0 min 0,000 mm 0,0 UV-I 0 W/m 1,2 C 4,3 C 8,0 km/h (2 Bft)
11.03.2016 22:30 4,2 C 80 % 1028,8 hPa 0,0 l/m 0,8 km/h (0 Bft) NO 48 0 min 0,000 mm 0,0 UV-I 0 W/m 1,1 C 4,2 C 8,0 km/h (2 Bft)
11.03.2016 22:35 4,2 C 80 % 1028,9 hPa 0,0 l/m 0,1 km/h (0 Bft) N-NO 28 0 min 0,000 mm 0,0 UV-I 0 W/m 1,1 C 4,2 C 1,6 km/h (1 Bft)
11.03.2016 22:40 4,2 C 80 % 1028,9 hPa 0,0 l/m 1,1 km/h (1 Bft) O 92 0 min 0,000 mm 0,0 UV-I 0 W/m 1,1 C 4,2 C 11,3 km/h (2 Bft)
11.03.2016 22:45 4,1 C 80 % 1029,0 hPa 0,0 l/m 0,0 km/h (0 Bft) N-NO 30 0 min 0,000 mm 0,0 UV-I 0 W/m 1,0 C 4,1 C 0,0 km/h (0 Bft)
11.03.2016 22:50 4,1 C 80 % 1028,9 hPa 0,0 l/m 0,1 km/h (0 Bft) N-NO 31 0 min 0,000 mm 0,0 UV-I 0 W/m 1,0 C 4,1 C 1,6 km/h (1 Bft)
11.03.2016 22:55 4,0 C 80 % 1028,9 hPa 0,0 l/m 0,4 km/h (0 Bft) O-NO 62 0 min 0,000 mm 0,0 UV-I 0 W/m 0,9 C 4,0 C 4,8 km/h (1 Bft)
11.03.2016 23:00 4,0 C 80 % 1029,0 hPa 0,0 l/m 1,8 km/h (1 Bft) O-NO 67 0 min 0,000 mm 0,0 UV-I 0 W/m 0,9 C 4,0 C 11,3 km/h (2 Bft)
11.03.2016 23:05 3,9 C 81 % 1029,0 hPa 0,0 l/m 2,7 km/h (1 Bft) O-NO 75 0 min 0,000 mm 0,0 UV-I 0 W/m 0,9 C 3,9 C 12,9 km/h (3 Bft)
11.03.2016 23:10 3,8 C 80 % 1029,0 hPa 0,0 l/m 6,4 km/h (2 Bft) O-NO 67 0 min 0,000 mm 0,0 UV-I 0 W/m 0,7 C 3,8 C 16,1 km/h (3 Bft)
11.03.2016 23:15 3,8 C 78 % 1029,1 hPa 0,0 l/m 4,8 km/h (1 Bft) NO 44 0 min 0,000 mm 0,0 UV-I 0 W/m 0,3 C 3,8 C 17,7 km/h (3 Bft)
11.03.2016 23:20 3,8 C 79 % 1029,1 hPa 0,0 l/m 3,3 km/h (1 Bft) N 5 0 min 0,000 mm 0,0 UV-I 0 W/m 0,5 C 3,8 C 12,9 km/h (3 Bft)
11.03.2016 23:25 3,8 C 78 % 1029,1 hPa 0,0 l/m 2,2 km/h (1 Bft) O-NO 67 0 min 0,000 mm 0,0 UV-I 0 W/m 0,3 C 3,8 C 11,3 km/h (2 Bft)
11.03.2016 23:30 3,8 C 78 % 1029,2 hPa 0,0 l/m 0,1 km/h (0 Bft) NO 49 0 min 0,000 mm 0,0 UV-I 0 W/m 0,3 C 3,8 C 6,4 km/h (2 Bft)
11.03.2016 23:35 3,7 C 77 % 1029,1 hPa 0,0 l/m 5,4 km/h (1 Bft) N-NO 32 0 min 0,000 mm 0,0 UV-I 0 W/m 0,1 C 3,7 C 17,7 km/h (3 Bft)
11.03.2016 23:40 3,7 C 76 % 1029,1 hPa 0,0 l/m 2,2 km/h (1 Bft) NO 49 0 min 0,000 mm 0,0 UV-I 0 W/m -0,1 C 3,7 C 11,3 km/h (2 Bft)
11.03.2016 23:45 3,7 C 72 % 1029,2 hPa 0,0 l/m 11,5 km/h (2 Bft) O-NO 67 0 min 0,000 mm 0,0 UV-I 0 W/m -0,9 C -0,4 C 20,9 km/h (4 Bft)
11.03.2016 23:50 3,7 C 71 % 1029,2 hPa 0,0 l/m 9,8 km/h (2 Bft) NO 49 0 min 0,000 mm 0,0 UV-I 0 W/m -1,1 C 0,8 C 22,5 km/h (4 Bft)
11.03.2016 23:55 3,7 C 72 % 1029,3 hPa 0,0 l/m 3,2 km/h (1 Bft) NO 39 0 min 0,000 mm 0,0 UV-I 0 W/m -0,9 C 3,7 C 20,9 km/h (4 Bft)
_ Min-Zeit 03:50 12:30 00:05 - 00:00 - - - - - - 23:50 23:45 00:00
Minimum _ 1,2 C 55 % 1024,2 hPa - 0,0 km/h (0 Bft) - - - - - - -1,1 C -0,4 C 0,0 km/h (0 Bft)
_ Max-Zeit 12:25 07:25 23:55 00:00 14:20 - - 10:25 12:05 12:30 13:00 11:10 12:20 13:50
Maximum _ 11,6 C 93 % 1029,3 hPa 0,0 l/m 11,7 km/h
O-NO (2 Bft)
- - 5 min 0,229 mm 2,5 UV-I 748 W/m 3,6 C 11,3 C 24,1 km/h
O-NO (4 Bft)
Durchschnitt _ 5,2 C 76 % 1026,3 hPa #0,0 l/m 2,1 km/h (1 Bft) O-NO - #2:25 h #1,168 mm 1,2 UV-I 191 W/m 1,2 C 5,0 C 7,0 km/h (2 Bft)